Location: Unspecified
(0.0000°N, 0.0000°E)
Time: 11:07:46
(UTC+00:00)

Daily predictions for brighter satellites

Satellite Brightness Start Highest point End
(mag) Time Altitude Azimuth Time Altitude Azimuth Time Altitude Azimuth
ARIANE 44L R/B 4.2 18:02:46 10° W 18:06:34 73° N 18:30:52 10° E
Cosmos 1538 Rocket 3.9 18:14:15 10° S 18:19:26 74° ESE 18:24:33 10° NNE
Ariane H10+ 4.3 18:15:22 10° W 18:19:35 71° S 18:48:00 10° E
Ariane H10+ 4.3 18:15:21 10° W 18:19:35 71° S 18:47:59 10° E
Ariane H10+ 4.3 18:15:21 10° W 18:19:36 71° S 18:47:59 10° E
GPS 2-15 Rocket1 3.4 18:17:56 10° WSW 18:22:44 55° SSE 18:27:28 10° E
Milstar 3 Cent rocket 3.9 18:18:53 10° SSW 18:25:10 38° SE 18:37:00 10° E
Tiangong 1 3.1 18:23:57 10° W 18:26:10 20° SW 18:28:24 10° S
Cosmos 1937 Rocket 3.8 18:21:09 10° NNW 18:26:14 70° WSW 18:31:22 10° S
Cosmos 1484 Rocket 3.7 18:23:56 10° S 18:27:51 55° W 18:31:46 10° NNW
Cosmos 1602 3.8 18:24:08 10° N 18:28:01 64° E 18:31:57 10° SSE
Hubble Space Telescope 2.4 18:24:48 10° W 18:28:36 35° NNW 18:32:23 10° NE
COSMOS 2406 3.3 18:35:18 10° S 18:40:57 57° ESE 18:46:33 10° NNE
deb Centaur AC-2 4.3 18:38:25 10° NW 18:42:49 55° NNE 18:46:06 16° ESE
Ariane H10 3.6 18:40:46 10° W 18:43:37 65° N 18:52:55 10° E
FUSE 4.0 18:38:29 10° SW 18:43:48 59° SSE 18:49:07 10° ENE
Maqsat-H 2.9 18:44:33 10° WNW 18:48:16 52° NNE 18:57:27 12° E
Cosmos 773 Rocket 4.4 18:47:24 10° SSW 18:52:34 67° WNW 18:57:40 10° N
FENGYUN 3A 4.2 18:51:48 13° SE 18:56:09 37° ENE 19:01:02 10° N
METEOR-M 4.1 18:50:54 10° SSE 18:56:16 83° ENE 19:01:36 10° N
ALOS 2.7 18:54:13 14° SE 18:57:49 40° ENE 19:02:09 10° N
OAO 3 Copernicus 4.2 18:53:22 10° SW 18:58:24 73° SE 19:03:28 10° ENE
Meteor 1-18 Rocket 4.4 18:52:36 10° S 18:58:31 86° W 19:04:26 10° N
Milstar 3 3.8 18:45:59 10° WNW 18:59:02 64° SSW 19:05:03 18° SE
Cosmos 2112 Rocket 4.3 18:55:35 10° S 19:00:36 44° ESE 19:05:33 10° NNE
FREGAT/IRIS 2.7 19:02:50 33° SE 19:03:52 52° E 19:06:50 10° N
Cosmos 1461 3.0 19:00:37 10° NNW 19:05:05 88° ENE 19:08:24 19° SSE
Okean 1 3.2 19:02:44 10° S 19:06:43 88° ESE 19:10:40 10° N
Cosmos 372 Rocket 3.9 19:11:53 10° N 19:16:54 59° ENE 19:19:08 32° SE
USA 81 4.4 19:15:51 29° SE 19:17:51 41° E 19:22:47 10° NNE
ARIANE 5 DEB (SYLDA) 3.2 19:16:43 10° WSW 19:17:55 28° SW 19:17:55 28° SW
GPS 2-04 Rocket1 2.3 19:16:03 10° SW 19:19:27 78° NW 19:20:25 44° NE
Cosmos 1709 Rocket 4.4 19:15:26 10° NNE 19:21:01 37° E 19:22:06 34° ESE
Cosmos 1680 Rocket 3.6 19:17:56 10° SSW 19:23:12 79° WNW 19:28:25 10° N
Meteor 2-4 Rocket 4.4 19:30:13 33° ENE 19:30:13 33° ENE 19:34:10 10° NNE
Delta 2 Rocket 4.1 19:23:43 10° NW 19:29:32 85° SW 19:31:21 46° SE
USA 238 DEB 3.8 19:23:38 10° NNW 19:30:45 80° WSW 19:35:21 24° SSE
USA 238 3.8 19:23:44 10° NNW 19:30:52 81° WSW 19:35:24 25° SSE
Delta 142 3.5 19:28:00 10° WSW 19:32:02 67° NNW 19:33:14 43° NE
H-2A R/B 3.1 19:38:36 54° N 19:38:36 54° N 19:41:31 10° N
CZ-3C R/B 2.9 19:34:04 10° W 19:38:01 47° S 19:42:22 32° SE
Iridium 4 Rocket 3.6 19:32:48 10° N 19:38:25 74° E 19:40:46 38° SSE
GPS 2-17 Rocket1 4.0 19:34:35 10° SW 19:38:10 36° S 19:38:10 36° S
SL-27 R/B 3.1 19:40:52 54° W 19:41:05 55° WNW 19:44:39 10° N
ARIANE 5 DEB (SYLDA) 4.3 19:36:01 10° WNW 19:43:31 55° N 19:44:14 48° NE
Cosmos 1536 Rocket 4.2 19:41:07 14° SSW 19:44:38 52° W 19:48:50 10° N
Cosmos 1125 Rocket 4.5 19:40:22 10° NNW 19:45:19 44° WSW 19:48:27 21° SSW
COSMOS 2455 4.5 19:40:53 10° NNE 19:43:19 18° NE 19:43:19 18° NE
Genesis I 4.3 19:42:02 10° NW 19:45:43 39° WSW 19:46:03 38° SW
ATLAS 3B R/B 3.9 19:43:05 10° NW 19:48:47 34° WSW 19:53:31 14° S
SJ-6B 4.4 19:51:02 26° SW 19:52:25 33° WSW 19:56:09 10° NW
Cosmos 2369 Rocket 2.6 20:00:30 10° NNW 20:06:04 58° WSW 20:06:43 55° SW
GPS 2-15 Rocket1 4.2 20:02:24 10° W 20:06:28 42° NW 20:06:28 42° NW
NOSS 3-2 (C) 4.0 19:59:14 10° NNW 20:07:22 67° ENE 20:07:55 66° E
Cosmos 1943 Rocket 3.1 20:04:57 10° N 20:08:25 39° N 20:08:25 39° N
Nadezhda 1 Rocket 4.2 20:12:07 63° N 20:12:07 63° N 20:17:20 10° N
Helios 1B rocket 4.3 20:09:28 10° NNW 20:12:50 30° WNW 20:12:50 30° WNW
Resurs 01 Rocket 3.7 20:25:47 25° WNW 20:25:47 25° WNW 20:28:01 10° NW
NOSS 3-2 (A) 4.3 20:19:23 10° NNW 20:27:31 66° WSW 20:28:30 62° SSW
Ariane 44P Rocket 3.9 20:14:10 10° W 20:28:49 62° WNW 20:28:49 62° WNW
ARIANE 44P R/B 4.4 20:28:12 10° WSW 21:02:14 12° E 21:09:12 10° E
ARIANE 44P R/B 4.4 20:28:12 10° WSW 21:02:14 12° E 21:09:11 10° E
ARIANE 44P R/B 4.4 20:28:13 10° WSW 21:02:14 12° E 21:09:12 10° E
CZ-3A R/B 4.3 20:43:07 10° WSW 20:54:04 34° SW 20:54:04 34° SW
